Weather History for Marysville, OH

Change the Weather History Date:

Thursday, July 25, 2013

  Actual Average (KDLZ) Record (KDLZ)
Temperature  
Mean Temperature 62 °F -  
Max Temperature 74 °F 83 °F 98 °F (1940)
Min Temperature 50 °F 61 °F 48 °F (2013)
Degree Days  
Heating Degree Days 3    
Growing Degree Days 12 (Base 50)    
Moisture  
Dew Point 51 °F    
Average Humidity 66    
Maximum Humidity 92    
Minimum Humidity 42    
Precipitation  
Precipitation 0.00 in - - ()
Sea Level Pressure  
Sea Level Pressure 30.08 in    
Wind  
Wind Speed 4 mph (NE)    
Max Wind Speed 10 mph    
Max Gust Speed 16 mph    
Visibility 10 miles    
Events      
Averages and records for this station are not official NWS values.
T = Trace of Precipitation, MM = Missing Value Source: NWS Daily Summary

Daily Weather History Graph

Daily Weather History Graph

Search for Another Location

Airport:

Trip Planner

Search our weather history database for the weather conditions in past years. The results will help you decide how hot, cold, wet, or windy it might be!

Date:

Astronomy

Jul. 25, 2013 Rise Set
Actual Time 6:25 AM EDT 8:54 PM EDT
Civil Twilight 5:53 AM EDT 9:25 PM EDT
Nautical Twilight 5:15 AM EDT 10:03 PM EDT
Astronomical Twilight 4:32 AM EDT 10:46 PM EDT
Moon 10:33 PM EDT (7/25) 9:53 AM EDT (7/25)
Length of Visible Light 15h 31m
Length of Day
14h 29m
Waning Gibbous, 88% of the Moon is Illuminated
Jul 25
Waning Gibbous
Jul 29
Last Quarter
Aug 6
New
Aug 14
First Quarter
Aug 20
Full

Hourly Weather History & Observations

Time (EDT) Temp. Dew Point Humidity Pressure Visibility Wind Dir Wind Speed Gust Speed Precip Events Conditions
12:13 AM 57.2 °F 50.9 °F 79% 30.04 in 10.0 mi NNE 4.6 mph - N/A   Clear
12:34 AM 56.7 °F 50.5 °F 80% 30.05 in 10.0 mi NNE 4.6 mph - N/A   Clear
12:53 AM 56.3 °F 50.4 °F 80% 30.05 in 10.0 mi Calm Calm - N/A   Clear
1:13 AM 55.2 °F 50.2 °F 83% 30.04 in 10.0 mi NE 3.5 mph - N/A   Clear
1:34 AM 54.7 °F 50.4 °F 85% 30.05 in 10.0 mi Calm Calm - N/A   Clear
1:53 AM 52.9 °F 49.8 °F 89% 30.05 in 10.0 mi Calm Calm - N/A   Clear
2:13 AM 53.2 °F 49.5 °F 87% 30.04 in 10.0 mi Calm Calm - N/A   Clear
2:34 AM 54.1 °F 50.0 °F 86% 30.04 in 10.0 mi Calm Calm - N/A   Clear
2:53 AM 52.5 °F 49.1 °F 88% 30.04 in 10.0 mi Calm Calm - N/A   Clear
3:13 AM 52.3 °F 49.6 °F 91% 30.05 in 10.0 mi Calm Calm - N/A   Clear
3:34 AM 53.4 °F 49.5 °F 86% 30.05 in 10.0 mi Calm Calm - N/A   Clear
3:53 AM 53.4 °F 49.3 °F 86% 30.05 in 10.0 mi NNE 4.6 mph - N/A   Clear
4:13 AM 53.6 °F 49.3 °F 85% 30.05 in 10.0 mi Calm Calm - N/A   Clear
4:34 AM 53.2 °F 49.1 °F 86% 30.05 in 10.0 mi Calm Calm - N/A   Clear
4:53 AM 52.7 °F 48.9 °F 87% 30.05 in 10.0 mi Calm Calm - N/A   Clear
5:13 AM 52.3 °F 48.6 °F 87% 30.05 in 10.0 mi NNE 3.5 mph - N/A   Clear
5:34 AM 52.3 °F 48.7 °F 88% 30.05 in 10.0 mi NNE 3.5 mph - N/A   Clear
5:53 AM 51.4 °F 48.6 °F 90% 30.06 in 10.0 mi Calm Calm - N/A   Clear
6:13 AM 50.7 °F 48.4 °F 92% 30.06 in 10.0 mi Calm Calm - N/A   Clear
6:34 AM 51.3 °F 48.4 °F 90% 30.06 in 10.0 mi Calm Calm - N/A   Clear
6:53 AM 52.2 °F 48.9 °F 89% 30.07 in 10.0 mi Calm Calm - N/A   Clear
7:13 AM 52.0 °F 49.1 °F 90% 30.07 in 10.0 mi Calm Calm - N/A   Clear
7:34 AM 55.0 °F 50.0 °F 83% 30.08 in 10.0 mi Calm Calm - N/A   Clear
7:53 AM 57.0 °F 49.8 °F 77% 30.09 in 10.0 mi Calm Calm - N/A   Clear
8:13 AM 57.4 °F 50.2 °F 77% 30.09 in 10.0 mi NNE 4.6 mph - N/A   Clear
8:34 AM 58.5 °F 51.1 °F 76% 30.09 in 10.0 mi Calm Calm - N/A   Clear
8:53 AM 59.7 °F 50.9 °F 73% 30.09 in 10.0 mi NE 4.6 mph - N/A   Clear
9:14 AM 61.5 °F 52.0 °F 71% 30.10 in 10.0 mi NE 4.6 mph - N/A   Clear
9:33 AM 63.0 °F 51.8 °F 67% 30.10 in 10.0 mi NE 5.8 mph - N/A   Clear
9:54 AM 64.0 °F 50.0 °F 60% 30.10 in 10.0 mi ENE 6.9 mph - N/A   Clear
10:13 AM 64.9 °F 50.0 °F 58% 30.10 in 10.0 mi East 6.9 mph - N/A   Clear
10:34 AM 65.8 °F 49.8 °F 56% 30.09 in 10.0 mi NE 8.1 mph - N/A   Clear
10:54 AM 66.9 °F 50.5 °F 56% 30.10 in 10.0 mi NE 8.1 mph - N/A   Clear
11:13 AM 67.6 °F 51.8 °F 57% 30.10 in 10.0 mi NE 6.9 mph - N/A   Clear
11:34 AM 68.5 °F 52.3 °F 56% 30.11 in 10.0 mi East 10.4 mph - N/A   Clear
11:54 AM 68.9 °F 52.0 °F 55% 30.11 in 10.0 mi ENE 9.2 mph - N/A   Clear
12:13 PM 69.6 °F 52.7 °F 55% 30.11 in 10.0 mi ENE 10.4 mph - N/A   Scattered Clouds
12:34 PM 70.5 °F 52.2 °F 52% 30.10 in 10.0 mi ENE 9.2 mph - N/A   Scattered Clouds
12:54 PM 70.5 °F 51.3 °F 50% 30.10 in 10.0 mi ENE 6.9 mph - N/A   Scattered Clouds
1:13 PM 70.7 °F 51.3 °F 50% 30.10 in 10.0 mi ENE 9.2 mph - N/A   Clear
1:33 PM 71.4 °F 50.5 °F 48% 30.10 in 10.0 mi NE 9.2 mph - N/A   Clear
1:54 PM 72.5 °F 51.4 °F 47% 30.10 in 10.0 mi NNE 8.1 mph - N/A   Clear
2:14 PM 72.3 °F 50.7 °F 46% 30.10 in 10.0 mi North 8.1 mph - N/A   Clear
2:33 PM 72.7 °F 50.5 °F 46% 30.09 in 10.0 mi NNE 8.1 mph - N/A   Clear
2:54 PM 73.2 °F 50.2 °F 44% 30.09 in 10.0 mi ENE 4.6 mph - N/A   Clear
3:14 PM 73.4 °F 51.1 °F 45% 30.09 in 10.0 mi ENE 9.2 mph - N/A   Clear
3:33 PM 73.9 °F 51.6 °F 45% 30.09 in 10.0 mi NNE 3.5 mph 16.1 mph N/A   Clear
3:54 PM 73.8 °F 50.5 °F 44% 30.09 in 10.0 mi NE 10.4 mph - N/A   Clear
4:14 PM 74.3 °F 50.5 °F 43% 30.10 in 10.0 mi NE 4.6 mph - N/A   Clear
4:33 PM 74.5 °F 51.6 °F 45% 30.10 in 10.0 mi NNE 4.6 mph - N/A   Clear
4:54 PM 74.8 °F 50.5 °F 42% 30.10 in 10.0 mi North 5.8 mph - N/A   Scattered Clouds
5:14 PM 74.5 °F 50.9 °F 43% 30.10 in 10.0 mi NE 6.9 mph - N/A   Clear
5:33 PM 74.3 °F 51.3 °F 44% 30.09 in 10.0 mi NE 8.1 mph - N/A   Clear
5:54 PM 74.3 °F 51.1 °F 44% 30.09 in 10.0 mi ENE 4.6 mph - N/A   Clear
6:14 PM 73.9 °F 50.7 °F 44% 30.09 in 10.0 mi NNE 5.8 mph - N/A   Clear
6:33 PM 73.6 °F 50.9 °F 45% 30.08 in 10.0 mi NE 6.9 mph - N/A   Clear
6:54 PM 73.8 °F 51.6 °F 46% 30.09 in 10.0 mi NNE 6.9 mph - N/A   Clear
7:14 PM 73.0 °F 51.3 °F 46% 30.09 in 10.0 mi NNE 5.8 mph - N/A   Clear
7:33 PM 72.7 °F 50.7 °F 46% 30.09 in 10.0 mi North 5.8 mph - N/A   Clear
7:54 PM 71.6 °F 52.0 °F 50% 30.09 in 10.0 mi NE 4.6 mph - N/A   Clear
8:14 PM 70.7 °F 52.2 °F 52% 30.09 in 10.0 mi NE 4.6 mph - N/A   Clear
8:33 PM 69.4 °F 52.0 °F 54% 30.09 in 10.0 mi North 3.5 mph - N/A   Clear
8:54 PM 68.0 °F 52.7 °F 58% 30.10 in 10.0 mi Calm Calm - N/A   Clear
9:14 PM 67.3 °F 52.2 °F 58% 30.10 in 10.0 mi North 3.5 mph - N/A   Clear
9:33 PM 66.2 °F 52.7 °F 62% 30.10 in 10.0 mi NNE 3.5 mph - N/A   Clear
9:53 PM 65.8 °F 53.1 °F 63% 30.11 in 10.0 mi Calm Calm - N/A   Clear
10:14 PM 64.6 °F 52.9 °F 66% 30.11 in 10.0 mi NNE 4.6 mph - N/A   Clear
10:33 PM 64.2 °F 52.9 °F 67% 30.11 in 10.0 mi NE 4.6 mph - N/A   Clear
10:53 PM 61.7 °F 53.1 °F 73% 30.11 in 10.0 mi ENE 3.5 mph - N/A   Clear
11:14 PM 60.4 °F 53.1 °F 77% 30.11 in 10.0 mi East 3.5 mph - N/A   Clear
11:33 PM 60.1 °F 52.9 °F 77% 30.11 in 10.0 mi ENE 3.5 mph - N/A   Clear
11:53 PM 59.0 °F 52.7 °F 80% 30.12 in 10.0 mi Calm Calm - N/A   Clear